Weather in Staryy Leshchin

Russia / Kursk Oblast     51°28′06″N   36°53′58″E
temp.,
°C
wind,
m/s
gust,
m/s
humid.,
%
clouds,
%
prec.,
mm/h
press.,
hPa
HPBL,
m
7 march, sun
sun700:00−10w36935 0.0 1021125
03:00−10w47952 0.0 1021148
06:00−9wsw4109693 0.0 1019243
09:00−7wsw8158387 0.0 1016622
12:00−3sw101675100 0.0 10131002
15:00−1wsw111974100 0.0 10091298
18:00−2wsw111891100 0.1 10061195
21:00−1wsw111892100 0.4 10051143
8 march, mon
mon800:00−1w81491100 0.5 1005949
03:00−3w3694100 3.1 1005413
06:00−4w2398100 1.3 1005132
09:00−3w51195100 1.9 1005653
12:00−2w7108498 0.5 10061187
15:00−3w798197 0.7 10071111
18:00−5w488896 0.1 1008226
21:00−6w4109598 0.2 1010349
9 march, tue
tue900:00−8wnw479594 0.1 1011153
03:00−12wnw349657 0.1 101275
06:00−11nw359691 0.1 1014113
09:00−11wnw369687 0.2 1016203
12:00−8wnw4692100 0.0 1017489
15:00−7nw5686100 0.1 1018828
18:00−10nw3891100 0.1 1019223
21:00−13nw349377 0.1 102258
10 march, wed
wed1000:00−15nnw33940 0.0 102343
03:00−16nw23950 0.0 102420
06:00−17nw23960 0.0 102521
09:00−15nnw23940 0.0 1026100
12:00−11n228331 0.0 1026301
15:00−10ne118066 0.0 1026364
18:00−11e1190100 0.0 102621
21:00−14ese228995 0.0 102720
11 march, thu
thu1100:00−14e338986 0.0 102838
03:00−15ese338886 0.0 102931
06:00−15se338869 0.0 102933
09:00−11sse358772 0.0 1029172
12:00−6s467837 0.0 1029528
15:00−4s467319 0.0 1028856
18:00−7sse34740 0.0 102742
21:00−8sse48730 0.0 1026130